Location: Earls Croome
(52.0667°N, 2.2000°W)
Time: 02:32:14
(UTC+00:00)

Sich 1 - Pass Details

Date: 17 November 2019
Orbit: 595 x 625 km, 82.5° (Epoch: 07 December)

Event Time Altitude Azimuth Distance (km) Brightness Sun altitude
Rises 06:47:36 0° 182° (S) 2,826 6.7 -6.9°
Reaches altitude 10° 06:49:48 10° 179° (S) 1,928 5.9 -6.6°
Maximum altitude 06:54:01 68° 97° (E) 647 3.5 -6.0°
Drops below altitude 10° 06:58:17 10° 15° (NNE) 1,948 5.5 -5.4°
Sets 07:00:31 0° 13° (NNE) 2,858 6.4 -5.1°
